Location: Appleton
(44.2618°N, 88.4157°W)
Time: 01:25:20
(UTC+00:00)

Tiros 1 despin weight - Pass Details

Date: 28 February 2021
Orbit: 593 x 641 km, 48.2° (Epoch: 10 April)

Event Time Altitude Azimuth Distance (km) Brightness Sun altitude
Exits shadow 09:24:27 26° 63° (ENE) 1,256 ? -33.7°
Drops below altitude 10° 09:26:40 10° 75° (ENE) 2,032 ? -33.4°
Sets 09:29:04 0° 80° (E) 2,943 ? -33.0°
